Tracking 35055 objects as of 18-Aug-2026
HD Live streaming from Space Station
objects crossing your sky now

MTUSI-1

Track MTUSI-1 now!
10-day predictions
MTUSI-1 is classified as:


NORAD ID: 61750
Int'l Code: 2024-199R
Launch date: November 4, 2024
Source: (TBD)
Launch site: VOSTOCHNY COSMODROME (VOSTO)

Uplink (MHz):
Downlink (MHz): 435.600
Beacon (MHz):
Mode: 38k4 FSK
Call sign:
Status: Unknown

Your satellite tracking list
Your tracking list is empty




NASA's NSSDC Master Catalog

Two Line Element Set (TLE):
1 61750U 24199R   26230.59284974  .00044237  00000-0  55423-3 0  9997
2 61750  97.2840 107.7032 0007683  66.2896 293.9166 15.59617881147269
Source of the keplerian elements: AFSPC